Location: Unspecified
(0.0000°N, 0.0000°E)
Time: 00:25:21
(UTC+00:00)

Tiros 1 - All Passes

Search period start: 16 September 2019 00:00
Search period end: 26 September 2019 00:00
Orbit: 631 x 664 km, 48.4° (Epoch: 14 September)

Date Brightness Start Highest point End Pass type
(mag) Time Alt. Az. Time Alt. Az. Time Alt. Az.
16 Sep - 00:04:55 10° WNW 00:09:11 38° SW 00:13:32 10° SSE night (unlit)
16 Sep - 10:36:09 10° S 10:40:20 30° SE 10:44:30 10° ENE daylight
16 Sep - 12:18:43 10° W 12:22:22 22° NW 12:26:00 10° N daylight
16 Sep - 22:48:43 10° NNW 22:53:12 53° NE 22:57:44 10° SE night (unlit)
17 Sep - 00:33:37 10° WSW 00:35:18 12° SW 00:36:59 10° SSW night (unlit)
17 Sep - 11:01:33 10° SW 11:06:21 82° NW 11:11:07 10° NE daylight
17 Sep - 21:34:43 10° NNE 21:37:11 14° NE 21:39:38 10° E night (unlit)
17 Sep - 23:14:50 10° WNW 23:19:12 43° SW 23:23:37 10° SSE night (unlit)
18 Sep - 09:46:17 10° S 09:50:19 26° SE 09:54:19 10° ENE daylight
18 Sep - 11:28:29 10° WSW 11:32:21 24° NW 11:36:13 10° N daylight
18 Sep - 21:58:48 10° NNW 22:03:13 46° NE 22:07:40 10° SE night (unlit)
18 Sep - 23:43:02 10° WSW 23:45:17 13° SW 23:47:31 10° SSW night (unlit)
19 Sep - 10:11:32 10° SW 10:16:20 88° SE 10:21:07 10° NE daylight
19 Sep - 20:45:13 10° NNE 20:47:10 12° NE 20:49:08 10° ENE night (unlit)
19 Sep - 22:24:45 10° NW 22:29:12 49° SW 22:33:42 10° SSE night (unlit)
20 Sep - 08:56:27 10° S 09:00:18 24° SE 09:04:08 10° ENE daylight
20 Sep - 10:38:16 10° WSW 10:42:20 27° NW 10:46:23 10° N daylight
20 Sep - 21:08:54 10° NNW 21:13:13 40° NE 21:17:34 10° ESE night (unlit)
20 Sep - 22:52:37 10° W 22:55:16 15° SW 22:57:56 10° SSW night (unlit)
21 Sep - 09:21:31 10° SW 09:26:19 78° SE 09:31:06 10° NE daylight
21 Sep - 19:55:57 10° NE 19:57:09 11° NE 19:58:21 10° ENE night (unlit)
21 Sep - 21:34:42 10° NW 21:39:13 56° SW 21:43:45 10° SSE night (unlit)
22 Sep - 08:06:39 10° S 08:10:16 21° SE 08:13:53 10° E daylight
22 Sep - 09:48:04 10° WSW 09:52:19 31° NW 09:56:32 10° N daylight
22 Sep - 20:19:01 10° NNW 20:23:14 35° NE 20:27:27 10° ESE visible
22 Sep - 22:02:16 10° W 22:05:15 17° SW 22:08:16 10° S night (unlit)
23 Sep - 08:31:32 10° SSW 08:36:18 69° SE 08:41:04 10° NE daylight
23 Sep - 20:44:40 10° NW 20:49:13 64° SW 20:53:48 10° SSE visible
24 Sep - 07:16:53 10° S 07:20:15 19° SE 07:23:36 10° E daylight
24 Sep - 08:57:55 10° WSW 09:02:18 35° NW 09:06:39 10° NNE daylight
24 Sep - 19:29:09 10° NNW 19:33:14 31° NE 19:37:19 10° ESE visible
24 Sep - 21:11:59 10° W 21:15:15 19° SW 21:18:33 10° S night (unlit)
25 Sep - 07:41:33 10° SSW 07:46:18 60° SE 07:51:01 10° NE daylight
25 Sep - 09:27:01 10° WNW 09:28:23 11° NW 09:29:45 10° NNW daylight
25 Sep - 19:54:38 10° NW 19:59:14 73° SW 20:03:50 10° SSE visible
